Weather History for Idabel, OK

Change the Weather History Date:

Tuesday, September 3, 2013

  Actual Average (KDEQ) Record (KDEQ)
Temperature  
Mean Temperature 84 °F 79 °F  
Max Temperature 98 °F 92 °F 106 °F (2000)
Min Temperature 71 °F 66 °F 49 °F (1952)
Degree Days  
Heating Degree Days 0 0  
Month to date heating degree days 0  
Since 1 July heating degree days 0  
Cooling Degree Days 20 14  
Month to date cooling degree days 42  
Year to date cooling degree days 1634  
Growing Degree Days 34 (Base 50)    
Moisture  
Dew Point 67 °F    
Average Humidity 66    
Maximum Humidity 94    
Minimum Humidity 24    
Precipitation  
Precipitation 0.00 in 0.12 in 2.38 in (1992)
Month to date precipitation 0.35  
Year to date precipitation 31.94  
Snow  
Snow 0.00 in - - ()
Month to date snowfall  
Since 1 July snowfall  
Since 1 September snowfall  
Snow Depth -    
Sea Level Pressure  
Sea Level Pressure 29.95 in    
Wind  
Wind Speed 4 mph (ENE)    
Max Wind Speed 10 mph    
Max Gust Speed -    
Visibility 10 miles    
Events      
T = Trace of Precipitation, MM = Missing Value Source: NWS Daily Summary

Daily Weather History Graph

Daily Weather History Graph

Search for Another Location

Airport:

Trip Planner

Search our weather history database for the weather conditions in past years. The results will help you decide how hot, cold, wet, or windy it might be!

Date:

Astronomy

Sep. 03, 2013 Rise Set
Actual Time 6:54 AM CDT 7:42 PM CDT
Civil Twilight 6:29 AM CDT 8:07 PM CDT
Nautical Twilight 5:59 AM CDT 8:37 PM CDT
Astronomical Twilight 5:28 AM CDT 9:08 PM CDT
Moon 5:11 AM CDT (9/3) 6:28 PM CDT (9/3)
Length of Visible Light 13h 38m
Length of Day
12h 47m
Waning Crescent, 3% of the Moon is Illuminated
Sep 3
Waning Crescent
Sep 5
New
Sep 12
First Quarter
Sep 19
Full
Sep 26
Last Quarter

Hourly Weather History & Observations

Time (CDT) Temp. Heat Index Dew Point Humidity Pressure Visibility Wind Dir Wind Speed Gust Speed Precip Events Conditions
12:17 AM 75.2 °F - 73.4 °F 94% 29.94 in 7.0 mi Calm Calm - N/A   Clear
12:37 AM 75.2 °F - 73.4 °F 94% 29.94 in 7.0 mi Calm Calm - N/A   Clear
12:56 AM 75.2 °F - 73.4 °F 94% 29.93 in 7.0 mi Calm Calm - N/A   Clear
1:35 AM 73.4 °F - 71.6 °F 94% 29.94 in 4.0 mi Calm Calm - N/A   Clear
1:36 AM 75.2 °F - 71.6 °F 89% 29.94 in 4.0 mi Calm Calm - N/A   Clear
1:56 AM 73.4 °F - 71.6 °F 94% 29.93 in 5.0 mi North 3.5 mph - N/A   Clear
2:15 AM 73.4 °F - 71.6 °F 94% 29.93 in 7.0 mi North 3.5 mph - N/A   Clear
2:16 AM 73.4 °F - 71.6 °F 94% 29.93 in 10.0 mi North 3.5 mph - N/A   Clear
2:35 AM 71.6 °F - 69.8 °F 94% 29.93 in 10.0 mi North 3.5 mph - N/A   Clear
2:37 AM 73.4 °F - 69.8 °F 88% 29.93 in 10.0 mi North 4.6 mph - N/A   Clear
2:55 AM 71.6 °F - 68.0 °F 88% 29.93 in 10.0 mi North 4.6 mph - N/A   Clear
2:57 AM 73.4 °F - 68.0 °F 83% 29.93 in 10.0 mi North 5.8 mph - N/A   Clear
3:15 AM 71.6 °F - 66.2 °F 83% 29.94 in 10.0 mi North 3.5 mph - N/A   Clear
3:17 AM 73.4 °F - 66.2 °F 78% 29.94 in 10.0 mi North 3.5 mph - N/A   Clear
3:37 AM 73.4 °F - 68.0 °F 83% 29.94 in 10.0 mi North 5.8 mph - N/A   Clear
3:55 AM 71.6 °F - 68.0 °F 88% 29.94 in 10.0 mi NNE 3.5 mph - N/A   Clear
3:57 AM 71.6 °F - 68.0 °F 88% 29.94 in 10.0 mi NE 3.5 mph - N/A   Clear
4:15 AM 71.6 °F - 68.0 °F 88% 29.94 in 10.0 mi Calm Calm - N/A   Clear
4:17 AM 71.6 °F - 68.0 °F 88% 29.94 in 10.0 mi Calm Calm - N/A   Clear
4:35 AM 71.6 °F - 68.0 °F 88% 29.94 in 10.0 mi NE 4.6 mph - N/A   Clear
4:37 AM 71.6 °F - 68.0 °F 88% 29.94 in 10.0 mi NNE 4.6 mph - N/A   Clear
4:55 AM 71.6 °F - 68.0 °F 88% 29.94 in 10.0 mi ENE 5.8 mph - N/A   Clear
4:57 AM 73.4 °F - 69.8 °F 88% 29.94 in 10.0 mi ENE 5.8 mph - N/A   Clear
5:15 AM 71.6 °F - 68.0 °F 88% 29.94 in 10.0 mi ENE 6.9 mph - N/A   Clear
5:17 AM 73.4 °F - 69.8 °F 88% 29.94 in 10.0 mi ENE 6.9 mph - N/A   Clear
5:35 AM 71.6 °F - 68.0 °F 88% 29.95 in 10.0 mi ENE 5.8 mph - N/A   Clear
5:55 AM 71.6 °F - 68.0 °F 88% 29.95 in 10.0 mi ENE 4.6 mph - N/A   Clear
6:15 AM 71.6 °F - 68.0 °F 88% 29.96 in 10.0 mi ENE 4.6 mph - N/A   Clear
6:35 AM 71.6 °F - 68.0 °F 88% 29.97 in 10.0 mi ENE 5.8 mph - N/A   Clear
6:55 AM 71.6 °F - 68.0 °F 88% 29.97 in 10.0 mi East 5.8 mph - N/A   Clear
7:15 AM 71.6 °F - 68.0 °F 88% 29.97 in 10.0 mi East 8.1 mph - N/A   Clear
7:35 AM 71.6 °F - 68.0 °F 88% 29.97 in 10.0 mi ENE 8.1 mph - N/A   Clear
7:55 AM 73.4 °F - 69.8 °F 88% 29.98 in 10.0 mi East 6.9 mph - N/A   Clear
8:15 AM 73.4 °F - 69.8 °F 88% 29.99 in 10.0 mi ENE 4.6 mph - N/A   Clear
8:35 AM 77.0 °F - 69.8 °F 78% 29.99 in 10.0 mi East 9.2 mph - N/A   Clear
8:55 AM 78.8 °F - 68.0 °F 69% 29.99 in 10.0 mi East 10.4 mph - N/A   Clear
9:15 AM 78.8 °F - 68.0 °F 69% 29.99 in 10.0 mi East 6.9 mph - N/A   Clear
9:35 AM 80.6 °F 83.2 °F 68.0 °F 65% 29.99 in 10.0 mi East 9.2 mph - N/A   Clear
9:55 AM 82.4 °F 85.4 °F 68.0 °F 62% 30.00 in 10.0 mi East 10.4 mph - N/A   Clear
10:15 AM 82.4 °F 86.3 °F 69.8 °F 66% 30.00 in 10.0 mi East 8.1 mph - N/A   Clear
10:35 AM 86.0 °F 90.4 °F 69.8 °F 58% 30.00 in 10.0 mi ENE 8.1 mph - N/A   Clear
10:55 AM 86.0 °F 90.4 °F 69.8 °F 58% 30.00 in 10.0 mi East 3.5 mph - N/A   Clear
11:15 AM 87.8 °F 92.6 °F 69.8 °F 55% 30.00 in 10.0 mi East 8.1 mph - N/A   Clear
11:35 AM 87.8 °F 92.6 °F 69.8 °F 55% 30.00 in 10.0 mi ESE 8.1 mph - N/A   Clear
11:55 AM 87.8 °F 92.6 °F 69.8 °F 55% 30.00 in 10.0 mi East 4.6 mph - N/A   Clear
12:15 PM 89.6 °F 94.7 °F 69.8 °F 52% 30.00 in 10.0 mi ENE 4.6 mph - N/A   Clear
12:35 PM 89.6 °F 94.7 °F 69.8 °F 52% 29.99 in 10.0 mi NE 4.6 mph - N/A   Clear
12:55 PM 91.4 °F 96.8 °F 69.8 °F 49% 29.99 in 10.0 mi NE 4.6 mph - N/A   Clear
1:15 PM 91.4 °F 96.8 °F 69.8 °F 49% 29.99 in 10.0 mi ENE 6.9 mph - N/A   Clear
1:35 PM 93.2 °F 98.8 °F 69.8 °F 46% 29.98 in 10.0 mi NE 6.9 mph - N/A   Clear
1:55 PM 93.2 °F 97.7 °F 68.0 °F 44% 29.97 in 10.0 mi East 4.6 mph - N/A   Clear
2:15 PM 95.0 °F 97.0 °F 64.4 °F 36% 29.97 in 10.0 mi Calm Calm - N/A   Clear
2:35 PM 95.0 °F 95.2 °F 60.8 °F 32% 29.96 in 10.0 mi East 4.6 mph - N/A   Clear
2:55 PM 96.8 °F 96.2 °F 59.0 °F 28% 29.95 in 10.0 mi NNE 4.6 mph - N/A   Clear
3:15 PM 96.8 °F 97.1 °F 60.8 °F 30% 29.94 in 10.0 mi ESE 6.9 mph - N/A   Clear
3:35 PM 98.6 °F 98.5 °F 59.0 °F 27% 29.94 in 10.0 mi ENE 3.5 mph - N/A   Clear
3:55 PM 98.6 °F 99.4 °F 60.8 °F 29% 29.93 in 10.0 mi Calm Calm - N/A   Clear
4:15 PM 98.6 °F 98.5 °F 59.0 °F 27% 29.92 in 10.0 mi North 3.5 mph - N/A   Clear
4:35 PM 98.6 °F 99.4 °F 60.8 °F 29% 29.92 in 10.0 mi NNE 8.1 mph - N/A   Clear
4:55 PM 98.6 °F 99.4 °F 60.8 °F 29% 29.91 in 10.0 mi NNE 6.9 mph - N/A   Clear
5:15 PM 98.6 °F 97.2 °F 55.4 °F 24% 29.91 in 10.0 mi East 6.9 mph - N/A   Clear
5:35 PM 98.6 °F 97.6 °F 57.2 °F 25% 29.90 in 10.0 mi ENE 5.8 mph - N/A   Clear
5:55 PM 96.8 °F 97.1 °F 60.8 °F 30% 29.91 in 10.0 mi NE 5.8 mph - N/A   Clear
6:15 PM 96.8 °F 98.0 °F 62.6 °F 32% 29.91 in 10.0 mi NE 5.8 mph - N/A   Clear
6:35 PM 95.0 °F 97.0 °F 64.4 °F 36% 29.91 in 10.0 mi ENE 5.8 mph - N/A   Clear
6:55 PM 93.2 °F 96.2 °F 66.2 °F 41% 29.91 in 10.0 mi East 3.5 mph - N/A   Clear
7:15 PM 91.4 °F 93.2 °F 64.4 °F 41% 29.92 in 10.0 mi East 4.6 mph - N/A   Clear
7:35 PM 87.8 °F 89.4 °F 64.4 °F 46% 29.92 in 10.0 mi East 4.6 mph - N/A   Clear
7:55 PM 86.0 °F 87.3 °F 64.4 °F 48% 29.92 in 10.0 mi East 4.6 mph - N/A   Clear
8:17 PM 84.2 °F 86.6 °F 66.2 °F 55% 29.94 in 10.0 mi East 5.8 mph - N/A   Clear
8:35 PM 82.4 °F 84.6 °F 66.2 °F 58% 29.94 in 10.0 mi NE 6.9 mph - N/A   Clear
8:55 PM 82.4 °F 84.6 °F 66.2 °F 58% 29.95 in 10.0 mi ENE 6.9 mph - N/A   Clear
9:15 PM 82.4 °F 85.4 °F 68.0 °F 62% 29.96 in 10.0 mi ENE 5.8 mph - N/A   Clear
9:35 PM 80.6 °F 83.2 °F 68.0 °F 65% 29.97 in 10.0 mi ENE 5.8 mph - N/A   Clear
9:55 PM 78.8 °F - 68.0 °F 69% 29.97 in 10.0 mi ENE 4.6 mph - N/A   Clear
10:15 PM 78.8 °F - 68.0 °F 69% 29.97 in 10.0 mi ENE 4.6 mph - N/A   Clear
10:35 PM 78.8 °F - 68.0 °F 69% 29.98 in 10.0 mi ENE 5.8 mph - N/A   Clear
10:55 PM 77.0 °F - 66.2 °F 69% 29.98 in 10.0 mi ENE 5.8 mph - N/A   Clear
11:15 PM 77.0 °F - 66.2 °F 69% 29.98 in 10.0 mi ENE 8.1 mph - N/A   Clear
11:35 PM 77.0 °F - 66.2 °F 69% 29.99 in 10.0 mi East 6.9 mph - N/A   Clear
11:55 PM 77.0 °F - 66.2 °F 69% 29.99 in 10.0 mi East 6.9 mph - N/A   Clear